Weather History for Grand Marais, MN

Change the Weather History Date:

Thursday, October 4, 2012

  Actual Average (KCKC) Record (KCKC)
Temperature  
Mean Temperature 52 °F -  
Max Temperature 61 °F 52 °F 71 °F (2011)
Min Temperature 43 °F 35 °F 21 °F (2008)
Degree Days  
Heating Degree Days 13    
Growing Degree Days 2 (Base 50)    
Moisture  
Dew Point 45 °F    
Average Humidity 75    
Maximum Humidity 87    
Minimum Humidity 62    
Precipitation  
Precipitation 0.00 in - - ()
Sea Level Pressure  
Sea Level Pressure 29.78 in    
Wind  
Wind Speed 15 mph (South)    
Max Wind Speed 37 mph    
Max Gust Speed 50 mph    
Averages and records for this station are not official NWS values.
T = Trace of Precipitation, MM = Missing Value Source: NWS Daily Summary

Daily Weather History Graph

Daily Weather History Graph

Search for Another Location

Airport:

Trip Planner

Search our weather history database for the weather conditions in past years. The results will help you decide how hot, cold, wet, or windy it might be!

Date:

Astronomy

Oct. 04, 2012 Rise Set
Actual Time 7:05 AM CDT 6:33 PM CDT
Civil Twilight 6:34 AM CDT 7:04 PM CDT
Nautical Twilight 5:58 AM CDT 7:40 PM CDT
Astronomical Twilight 5:22 AM CDT 8:16 PM CDT
Moon 8:49 PM CDT (10/4) 11:42 AM CDT (10/4)
Length of Visible Light 12h 29m
Length of Day
11h 28m
Waning Gibbous, 82% of the Moon is Illuminated
Oct 4
Waning Gibbous
Oct 8
Last Quarter
Oct 15
New
Oct 21
First Quarter
Oct 29
Full

Hourly Weather History & Observations

Time (CDT) Temp. Windchill Dew Point Humidity Pressure Visibility Wind Dir Wind Speed Gust Speed Precip Events Conditions
12:56 AM 57.0 °F - 46.0 °F 67% 29.91 in - ENE 4.6 mph - N/A   Unknown
1:56 AM 61.0 °F - 48.0 °F 62% 29.90 in - ENE 5.8 mph - N/A   Unknown
2:56 AM 55.9 °F - 48.9 °F 77% 29.89 in - East 5.8 mph - N/A   Unknown
3:56 AM 55.9 °F - 52.0 °F 87% 29.87 in - ENE 11.5 mph - N/A   Unknown
4:56 AM 55.0 °F - 50.0 °F 83% 29.86 in - ENE 10.4 mph 17.3 mph N/A   Unknown
5:56 AM 55.0 °F - 46.9 °F 74% 29.84 in - ENE 9.2 mph - N/A   Unknown
6:56 AM 55.9 °F - 48.9 °F 77% 29.83 in - ENE 13.8 mph 23.0 mph N/A   Unknown
7:56 AM 55.0 °F - 48.9 °F 80% 29.79 in - ENE 17.3 mph 24.2 mph N/A   Unknown
8:56 AM 57.0 °F - 50.0 °F 77% 29.75 in - ENE 16.1 mph 25.3 mph N/A   Unknown
9:56 AM 57.0 °F - 52.0 °F 83% 29.73 in - ENE 21.9 mph 34.5 mph N/A   Unknown
10:56 AM 55.9 °F - 52.0 °F 87% 29.70 in - ENE 19.6 mph 32.2 mph N/A   Unknown
11:56 AM 55.9 °F - 52.0 °F 87% 29.68 in - East 12.7 mph - N/A   Unknown
12:25 PM 53.6 °F - 46.4 °F 77% 29.71 in - WSW 12.7 mph 24.2 mph N/A   Unknown
12:56 PM 54.0 °F - 46.0 °F 75% 29.71 in - SW 17.3 mph 26.5 mph N/A   Unknown
1:56 PM 53.1 °F - 45.0 °F 74% 29.71 in - WSW 26.5 mph 36.8 mph N/A   Unknown
2:56 PM 50.0 °F - 42.1 °F 74% 29.72 in - SW 36.8 mph 49.5 mph N/A   Unknown
3:56 PM 50.0 °F - 41.0 °F 71% 29.73 in - SW 36.8 mph 47.2 mph N/A   Unknown
4:56 PM 50.0 °F - 39.9 °F 68% 29.73 in - SW 29.9 mph 46.0 mph N/A   Unknown
5:56 PM 48.9 °F - 41.0 °F 74% 29.75 in - SW 34.5 mph 43.7 mph N/A   Unknown
6:56 PM 48.0 °F - 39.0 °F 71% 29.76 in - WSW 26.5 mph 39.1 mph N/A   Unknown
7:56 PM 46.9 °F - 37.9 °F 71% 29.77 in - WSW 19.6 mph 35.7 mph N/A   Unknown
8:56 PM 46.0 °F 37.2 °F 37.0 °F 71% 29.76 in - WSW 26.5 mph 40.3 mph N/A   Unknown
9:56 PM 43.0 °F 34.2 °F 34.0 °F 71% 29.77 in - WSW 20.7 mph 31.1 mph N/A   Unknown
10:56 PM 44.1 °F 35.2 °F 36.0 °F 73% 29.76 in - WSW 23.0 mph 35.7 mph N/A   Unknown
11:56 PM 43.0 °F 34.2 °F 36.0 °F 76% 29.75 in - WSW 20.7 mph 38.0 mph N/A   Unknown